Regional Weather Roundup
Issued by NWS Wakefield, VA

Home | Current Version | Previous Version | Graphics & Text | Print | Product List | Glossary On
Versions: 1 2 3 4 5 6 7 8 9 10 11 12 13 14 15 16 17 18 19 20 21 22 23 24 25 26 27 28
000
ASUS41 KAKQ 290515
RWRAKQ

REGIONAL WEATHER ROUNDUP
NATIONAL WEATHER SERVICE WAKEFIELD VA
100 AM EDT SAT APR 29 2017

Note: "fair" indicates few or no clouds below 12,000 feet with no
significant weather and/or obstructions to visibility. * = Denotes
station may not report precipitation (e.g., rain,snow,etc.),
thunder or fog.

VAZ042-051-052>054-056-290600-
NORTHERN VIRGINIA

CITY           SKY/WX    TMP DP  RH WIND       PRES   REMARKS
WASH NATIONAL  CLOUDY    71  68  90 S6        30.01F
DULLES         CLOUDY    72  64  76 VRB5      30.01R
FORT BELVOIR   CLOUDY    66  63  89 CALM      30.00F
QUANTICO       CLOUDY    70  68  93 SW5       30.01F
FREDERICKSBRG* CLOUDY    74  68  80 S9        30.00F
STAFFORD*      CLOUDY    63  63 100 CALM      30.05F
WARRENTON      CLOUDY    74  63  68 S6        30.00S
CULPEPER*      CLOUDY    73  66  80 S5        30.02R
MANASSAS*        N/A     71  65  81 S5        30.00F
LEESBURG*      CLOUDY    70  66  88 NW3       30.03R
WINCHESTER     CLOUDY    63  59  88 CALM      30.01R
FRONT ROYAL*   CLOUDY    68  61  77 CALM      30.00R
LURAY*         CLOUDY    72  63  73 SW5       30.02R
$$

VAZ048-049-060>072-079>083-290600-
CENTRAL AND SOUTH CENTRAL VIRGINIA

CITY           SKY/WX    TMP DP  RH WIND       PRES   REMARKS
RICHMOND       PTCLDY    74  70  87 S10       30.04F
CHESTERFIELD*  FAIR     N/A N/A N/A S8        30.06S
PETERSBURG*    CLEAR     73  68  86 S5        30.07F
HANOVER        CLEAR     74  67  78 S7        30.04F
TAPPAHANNOCK*  CLEAR     74  66  76 S6        30.05F
QUINTON*       FAIR      75  72  91 S7        30.05F
CHARLOTTSVILLE CLOUDY    71  65  81 S6        30.02R
GORDONSVILLE*  CLOUDY    65  64  94 CALM      30.02R
ORANGE*        PTCLDY    66  63  88 CALM      30.01S
LOUISA*        CLOUDY    77  70  78 S6        30.01S
BUMPASS*       FAIR      72  69  90 S3        30.02F
FARMVILLE*     CLOUDY    71  70  98 CALM      30.02F
CREWE*         FAIR      71  71 100 S6        30.05F
FORT PICKETT*  NOT AVBL
CHASE CITY*    FAIR      73  70  88 S5        30.08R
CLARKSVILLE*   FAIR      70  70 100 S3        30.08S
SOUTH HILL*    CLEAR     73  72  95 S10       30.14S
LAWRENCEVILLE* FAIR      73  71  93 S5        30.09R
EMPORIA*       CLEAR     73  72  94 SE6       30.10S
$$

VAZ088>098-290600-
SOUTHEAST VIRGINIA

CITY           SKY/WX    TMP DP  RH WIND       PRES   REMARKS
NORFOLK        CLEAR     77  72  84 S13       30.09R
VIRGINIA BEACH PTCLDY    75  71  87 S12       30.09R
NORFOLK NAVAL  CLEAR     77  73  87 S7        30.10S
WEST POINT*    CLEAR     77  70  78 SW10G16   30.07F
SALUDA*        FAIR      72  71  96 S7        30.05F
NEWPORT NEWS   CLEAR     77  72  84 S10       30.07S
LANGLEY AFB    CLEAR     77  74  91 S13       30.07S
FORT EUSTIS    CLEAR     76  72  87 S7        30.05S
WILLIAMSBURG*  CLEAR     79  73  83 CALM      30.08S
HR EXEC AP*    FAIR      75  70  83 SW8       30.08S
FRANKLIN*      CLEAR     75  72  88 S9        30.10S
US460-WAKEFLD  CLEAR     76  72  87 VRB7      30.08S
$$

VAZ020-022-025-037-045-290600-
WEST CENTRAL AND SOUTHWEST VIRGINIA

CITY           SKY/WX    TMP DP  RH WIND       PRES   REMARKS
STAUNTON*      CLOUDY    66  61  82 SW3       30.06R
WAYNESBORO*    CLOUDY    73  64  73 SW7       30.06R
HOT SPRINGS VA PTCLDY    64  54  68 SW17G26   30.17R
LYNCHBURG      CLEAR     68  65  90 S9        30.05F
DANVILLE       CLEAR     70  67  90 S5        30.08R
SOUTH BOSTON*  FAIR      73  68  87 S6        30.07R
MARTINSVILLE   PTCLDY    64  62  93 CALM      30.11S
ROANOKE        CLEAR     73  63  70 W7        30.07F
BLACKSBURG     CLEAR     70  62  75 SW5       30.14F
DUBLIN*        CLEAR     70  59  67 W8        30.12S
MARION*        CLEAR     65  60  83 CALM      30.16S
HILLSVILLE*    CLEAR     67  63  87 CALM      30.15S
RICHLANDS*     FAIR      69  59  70 S6        30.12S
WISE*          CLEAR     70  59  68 S9        30.11F
ABINGDON*      CLEAR     67  62  83 CALM      30.11R
$$

MDZ021>025-VAZ099-100-290600-
SOUTHERN MARYLAND AND THE DELMARVA PENINSULA

CITY           SKY/WX    TMP DP  RH WIND       PRES   REMARKS
PATUXENT RIVER CLOUDY    67  66  97 SE5       30.03F
BAY BRIDGE APT CLEAR     70  68  94 SE7       30.02F
LEONARDTOWN    CLOUDY    70  66  88 SE5       30.04F
DOVER          CLOUDY    70  70 100 SE6       30.02F
GEORGETOWN     CLOUDY    72  68  87 S6        30.05S
EASTON         CLOUDY    73  68  84 S7        30.07F
CAMBRIDGE        N/A     72  68  88 S7        30.04F
SALISBURY      CLEAR     70  69  97 S8        30.06R
OCEAN CITY     PTCLDY    61  61 100 S3        30.07F FOG
WALLOPS ISLAND CLEAR     69  69 100 S14       30.07S
ACCOMACK*      CLEAR     73  71  92 S7        30.07S
$$

NCZ012>017-030>032-290600-
NORTH CENTRAL AND EASTERN NORTH CAROLINA

CITY           SKY/WX    TMP DP  RH WIND       PRES   REMARKS
ROANOKE RAPIDS FAIR      73  72  94 S9        30.10S
RALEIGH        PTCLDY    77  72  84 S12       30.11R
ELIZABETH CITY CLOUDY    75  74  96 S16       30.12S
AHOSKIE*         N/A     74  72  95 S6        30.11S
EDENTON*       CLOUDY    76  73  87 SW12      30.14S
CURRITUCK*     CLOUDY    76  76 100 S9        30.13R
KILL DEVIL HLS CLEAR     74  74 100 SW7       30.13S
MANTEO         MOCLDY    73  72  95 SW14      30.16R
CAPE HATTERAS  MOCLDY    74  72  93 S9        30.18S FOG
TARBORO*       NOT AVBL
GOLDSBORO      CLOUDY    76  76 100 S12       30.13R
WASHINGTON     CLEAR     74  72  92 SW9       30.15R
GREENVILLE     CLEAR     73  73 100 SW7       30.15R
NEW BERN       MOCLDY    75  73  93 SW8       30.17R
WILMINGTON     CLOUDY    76  74  93 S8        30.17R
$$

VAZ048-290600-
ELSEWHERE

CITY           SKY/WX    TMP DP  RH WIND       PRES   REMARKS
HARRISBURG PA  CLOUDY    68  61  78 CALM      30.01F
BALTIMORE      CLOUDY    71  69  93 CALM      30.00F
ANNAPOLIS      CLOUDY    71  71 100 S8        30.01F
ANDREWS AFB    CLOUDY    71  67  87 S10       30.00F
PHILADELPHIA   MOCLDY    68  59  73 S3        30.05F
HENDERSON NC   CLEAR     71  67  88 S8        30.09F
GREENSBORO     PTCLDY    73  69  87 SW12      30.09F
ROCKY MOUNT    CLOUDY    76  74  93 S12G21    30.12S
$$

VAZ100-290600-
MARINE

STATION/POSITION TIME  TEMP    WIND        PRES    WAVE   SWELL
                       AIR SEA DIR/SP/G            HT/PER HT/PER
                 (UTC) (F)     (DEG/KT/KT) (MB)    (FT/S) (FT/S)
CAPE MAY NJ      0448   62 60  140/  7/ 10 1017.8R
LEWES DE         0448   67 59  160/  4/  5 1017.7R
15NM E FENWICK I 0450   58 55  180/ 12/ 14 1018.6F   4/ 8   3/ 8
OCEAN-CITY-INLET 0448   57 54  210/  9/ 10 1019.0R
WACHAPREAGUE VA  0448   69 70  190/  8/ 12 1018.2R
THOMAS POINT MD  0500   65 62  170/ 10/ 10   N/A
GOOSES REEF MD   0500   65 57  160/ 12/ 14 1017.3    1/ 3
COVE POINT MD    0448   65     190/ 13/ 14 1017.5F
SOLOMONS ISLAND  0448   67 63   90/  6/  7   N/A
BISHOPS HEAD MD  0448   69 71  170/  9/ 10 1017.9R
PINEY POINT MD   0448          150/  7/  7   N/A
POTOMAC MD       0500   68 64  190/  8/ 10 1016.4    1
CAMBRIDGE MD     0442   72 68                N/A
LEWISETTA VA     0448   72 69  200/  7/  8 1016.9F
RAPPAHANNOCK LGT 0448          180/ 18/ 19 1018.8R
STINGRAY PT      0500   67 65  190/ 12/ 14 1017.6
YORK RVR RNG VA  0448   73     210/ 15/ 16 1017.6R
YORKTOWN VA      0448   78 65  210/ 10/ 12 1017.8R
JAMESTOWN VA     0500   76 70  210/  8/ 14   N/A     0
DOMINION TERM VA 0448   74     190/  9/ 12 1018.9R
KIPTOPEKE VA     0448      65  170/  9/ 10   N/A
CHES BAY BRIDGE  0448   75 63  220/ 12/ 17 1018.5F
CAPE HENRY VA    0448   75     180/  9/ 14   N/A
WILLOUBY STN VA  0448   76     200/ 15/ 18 1019.6R
S CRANEY ISL VA  0448   76     200/ 10/ 14 1018.6R
CAPE HENRY BUOY  0442      63                N/A     3/ 7
1ST LANDING BUOY 0500   71 64              1019.0    1/ 3
CAPE CHARLES BUO 0451      62                N/A     3/ 8
64NM E OF VA BCH 0450   63 57  200/ 14/ 16 1020.8R   4/ 8   2/ 8
DUCK PIER NC     0448   75 59  200/ 17/ 21 1019.8R
44100 DUCK FRF   0405      62                N/A     3/ 8   2/11
44056 DUCK FRF   0430      60                N/A     2/ 8
OREGON INLET NC  0442   74 76  200/ 17/ 20 1021.0R
HATTERAS NC      0448   74 73  190/  5/  9 1021.6R
DIAMOND SHLS NC  0450   77 76  200/ 16/ 19 1022.1R   4/ 8   2/ 8
CAPE LOOKOUT NC  0500   73     190/  8/  9 1021.8R
$$




USA.gov is the U.S. government's official web portal to all federal, state and local government web resources and services.